Regional Weather Roundup
Issued by NWS

Home | Current Version | Previous Version | Text Only | Print | Product List | Glossary On
Versions: 1 2 3 4 5 6 7 8 9 10 11 12 13 14 15 16 17 18 19 20 21 22 23 24 25 26 27 28 29 30 31 32 33 34 35 36 37 38 39 40 41 42 43 44 45 46 47 48 49 50
000
ASCA44 KEWX 101720
RWRMX

LATIN AMERICA AND CARIBBEAN REGIONAL WEATHER ROUNDUP
NATIONAL WEATHER SERVICE AUSTIN/SAN ANTONIO TX
1100 AM CST WED FEB 10 2016

NOTE: "FAIR" INDICATED FEW OR NO CLOUDS BELOW 12,000 FEET WITH NO
SIGNIFICANT WEATHER AND/OR OBSTRUCTIONS TO VISIBILITY.

BAJA CALIFORNIA

CITY           SKY/WX    TMP DP  RH WIND       PRES   REMARKS
LORETO         SUNNY     81  52  36 N6        30.10R
LA PAZ         SUNNY     75  48  38 N10       30.13R
MEXICALI       MOSUNNY   68  27  21 W5        30.21R
S.J. DEL CABO  SUNNY     81  34  18 N12       30.10S
TIJUANA        SUNNY     72  27  18 E7        30.18R

NORTHWESTERN MEXICO

CITY           SKY/WX    TMP DP  RH WIND       PRES   REMARKS
CULIACAN       SUNNY     81  46  30 CALM      30.11R
DURANGO        SUNNY     55  23  28 N7        30.48S
GUAYMAS        SUNNY     73  45  35 CALM      30.08R
HERMOSILLO     SUNNY     81  21  11 NE7       30.16R
CD. JUAREZ     SUNNY     54  32  43 CALM      30.43R
LOS MOCHIS     SUNNY     73  57  56 N3        30.11S
OBREGON        SUNNY     77  45  31 W2        30.09R

NORTHEASTERN MEXICO

CITY           SKY/WX    TMP DP  RH WIND       PRES   REMARKS
CHIHUAHUA      SUNNY     54  18  24 CALM      30.45R
MATAMOROS      SUNNY     70  46  43 S9        30.42R
MONCLOVA         N/A    N/A N/A N/A MISG        N/A
MONTERREY      SUNNY     68  25  19 CALM      30.38S
NUEVO LAREDO   SUNNY     64  32  29 CALM      30.39S
PIEDRAS NEGRAS SUNNY     63  36  36 N5        30.38R
REYNOSA        SUNNY     72  30  21 S6        30.39S
SALTILLO       SUNNY     59  36  41 CALM      30.50S
TORREON        SUNNY     61  30  31 CALM      30.44S
CD. VICTORIA   SUNNY     68  32  26 SE9G22    30.42R

WESTERN MEXICO

CITY           SKY/WX    TMP DP  RH WIND       PRES   REMARKS
AGUASCALIENTES SUNNY     55  32  41 N9        30.49S
COLIMA         PTSUNNY   79  48  34 N12       30.17S
DEL BAJIO      SUNNY     59  36  41 S5        30.50F
GUADALAJARA    MOSUNNY   61  30  31 N9        30.40F
MANZANILLO     MOSUNNY   79  73  83 CALM      30.02R
MAZATLAN       SUNNY     79  63  57 N6        30.09S
P. VALLARTA    MOSUNNY   79  61  53 S5        30.07S
URUAPAN        PTSUNNY   66  48  52 CALM      30.31R
ZACATECAS      SUNNY     59  34  38 E17       30.46F

CENTRAL MEXICO

CITY           SKY/WX    TMP DP  RH WIND       PRES   REMARKS
CUERNAVACA       N/A    N/A N/A N/A MISG        N/A
MEXICO CITY    PTSUNNY   50  36  57 CALM      30.51F
MORELIA        CLOUDY    54  39  58 CALM      30.45R
POZA RICA        N/A    N/A N/A N/A MISG        N/A
PUEBLA         CLOUDY    52  34  50 N8        30.49S
QUERETARO      CLOUDY    52  39  62 SE13      30.54
S. LUIS POTOSI MOSUNNY   52  30  43 CALM      30.50S
TAMPICO        MOSUNNY   72  48  43 SW6       30.44S
TOLUCA         PTSUNNY   54  37  54 W5        30.49F

SOUTHERN MEXICO

CITY           SKY/WX    TMP DP  RH WIND       PRES   REMARKS
ACAPULCO       MOSUNNY   84  70  61 W5        30.03S
B. DE HUATULCO SUNNY     86  72  62 CALM      30.08F HX  92
OAXACA         PTSUNNY   61  39  44 SW3       30.45F
P. ESCONDIDO   SUNNY     84  54  34 W9        30.12R
VERACRUZ       CLOUDY    64  59  82 S6        30.43R
ZIHUATANEJO    PTSUNNY   86  72  62 SW2       30.05R HX  92

YUCATAN PENINSULA

CITY           SKY/WX    TMP DP  RH WIND       PRES   REMARKS
CAMPECHE       MOSUNNY   70  55  60 N15       30.34S
CANCUN         PTSUNNY   72  55  56 N14       30.30F
CHETUMAL         N/A    N/A N/A N/A MISG        N/A
CD. DEL CARMEN CLOUDY    72  63  73 S7        30.36F
COZUMEL        MOSUNNY   68  57  68 N12       30.30F
MERIDA         PTSUNNY   73  54  49 N9        30.36R
MINATITLAN     PTSUNNY   72  61  68 N15       30.37R
TAPACHULA      SUNNY     86  70  58 NW6       30.05S HX  90
TUX. GUTIERREZ SUNNY     68  46  45 SE2       30.31F
VILLAHERMOSA   PTSUNNY   73  59  60 CALM      30.39F

CENTRAL AMERICA

CITY           SKY/WX    TMP DP  RH WIND       PRES   REMARKS
BELIZE CITY    MOSUNNY   73  55  53 NW12      30.31F
MANAGUA        PTSUNNY   86  63  45 E16       29.97S

CARIBBEAN

CITY           SKY/WX    TMP DP  RH WIND       PRES   REMARKS
ARUBA          MOSUNNY   88  72  58 E26G38    29.94S HX  94
CURACAO        MOSUNNY   88  72  58 SE25      30.00S HX  94
KINGSTON       MOSUNNY   84  70  61 SW9       30.06F
NASSAU         PTSUNNY   73  43  33 W10       30.20F
SAN JUAN       MOSUNNY   84  70  61 E14       30.07F
SANTO DOMINGO  MOSUNNY   86  72  62 SE7       30.06F HX  92
ST. CROIX      MOSUNNY   86  70  58 E16       30.10F HX  90
ST. KITTS      MOSUNNY   86  72  62 E12       30.09F HX  92
ST. MAARTEN    MOSUNNY   82  70  65 SE12      30.09F
ST. THOMAS     SUNNY     82  72  69 SE13      30.09F

$$




USA.gov is the U.S. government's official web portal to all federal, state and local government web resources and services.